EWG4JP EDDS-EDDB

Flight info

Callsign EWG4JP
Flight time 1h 14m
Altitude 23000
Route DKB9B DKB N869 AMOSA/N0446F270 N869 ANELA Z715 ABKIS/N0439F260 Q240 BESIP T203 ATGUP ATGUP1R
Aircraft A319/M-SDE3FGHIRWY/LB1

Departure

Time 2026-05-05 17:16
Airport Stuttgart Airport (EDDS)

Arrival

Time 2026-05-05 18:31
Airport Berlin Brandenburg Airport (EDDB)
Time Latitude Longitude Altitude Speed Heading
2026-05-05 16:39 48.68869 9.19289 1316 ft 0 kts 344°
2026-05-05 16:58 48.68869 9.19290 1316 ft 0 kts 344°
2026-05-05 16:58 48.68869 9.19289 1316 ft 0 kts 344°
2026-05-05 16:59 48.68869 9.19290 1316 ft 0 kts 344°
2026-05-05 17:02 48.68855 9.19295 1315 ft 4 kts 344°
2026-05-05 17:02 48.68829 9.19306 1315 ft 4 kts 348°
2026-05-05 17:02 48.68804 9.19310 1315 ft 4 kts 18°
2026-05-05 17:03 48.68791 9.19298 1315 ft 0 kts 74°
2026-05-05 17:05 48.68791 9.19299 1315 ft 1 kts 74°
2026-05-05 17:06 48.68796 9.19325 1314 ft 4 kts 73°
2026-05-05 17:06 48.68808 9.19387 1313 ft 8 kts 74°
2026-05-05 17:06 48.68828 9.19489 1312 ft 12 kts 73°
2026-05-05 17:06 48.68854 9.19632 1309 ft 16 kts 74°
2026-05-05 17:07 48.68885 9.19794 1305 ft 15 kts 74°
2026-05-05 17:07 48.68827 9.19910 1298 ft 16 kts 134°
2026-05-05 17:07 48.68847 9.20092 1293 ft 21 kts 71°
2026-05-05 17:07 48.68892 9.20322 1288 ft 24 kts 74°
2026-05-05 17:08 48.68943 9.20584 1281 ft 29 kts 73°
2026-05-05 17:08 48.68995 9.20858 1274 ft 28 kts 74°
2026-05-05 17:08 48.69049 9.21145 1271 ft 30 kts 74°
2026-05-05 17:08 48.69103 9.21434 1261 ft 33 kts 73°
2026-05-05 17:09 48.69161 9.21732 1254 ft 28 kts 74°
2026-05-05 17:09 48.69203 9.21957 1249 ft 22 kts 73°
2026-05-05 17:09 48.69252 9.22210 1253 ft 23 kts 73°
2026-05-05 17:09 48.69300 9.22462 1242 ft 30 kts 74°
2026-05-05 17:10 48.69356 9.22760 1231 ft 19 kts 74°
2026-05-05 17:10 48.69392 9.22950 1227 ft 11 kts 73°
2026-05-05 17:10 48.69422 9.23104 1223 ft 19 kts 74°
2026-05-05 17:10 48.69465 9.23335 1219 ft 25 kts 74°
2026-05-05 17:11 48.69511 9.23574 1214 ft 18 kts 73°
2026-05-05 17:11 48.69543 9.23750 1210 ft 22 kts 75°
2026-05-05 17:11 48.69585 9.23978 1205 ft 13 kts 76°
2026-05-05 17:11 48.69608 9.24123 1201 ft 14 kts 81°
2026-05-05 17:12 48.69580 9.24242 1196 ft 9 kts 120°
2026-05-05 17:12 48.69557 9.24283 1194 ft 0 kts 140°
2026-05-05 17:13 48.69554 9.24287 1194 ft 3 kts 141°
2026-05-05 17:13 48.69512 9.24313 1191 ft 4 kts 163°
2026-05-05 17:13 48.69491 9.24323 1190 ft 0 kts 165°
2026-05-05 17:14 48.69479 9.24327 1190 ft 5 kts 165°
2026-05-05 17:14 48.69431 9.24345 1190 ft 9 kts 166°
2026-05-05 17:14 48.69398 9.24340 1190 ft 5 kts 228°
2026-05-05 17:15 48.69392 9.24321 1191 ft 0 kts 249°
2026-05-05 17:15 48.69392 9.24320 1191 ft 1 kts 249°
2026-05-05 17:15 48.69342 9.24071 1196 ft 64 kts 253°
2026-05-05 17:15 48.69150 9.23048 1216 ft 136 kts 254°
2026-05-05 17:16 48.68851 9.21463 1537 ft 163 kts 255°
2026-05-05 17:16 48.68551 9.19812 2268 ft 162 kts 253°
2026-05-05 17:16 48.68225 9.18138 2814 ft 172 kts 253°
2026-05-05 17:16 48.67858 9.16323 3206 ft 190 kts 252°
2026-05-05 17:17 48.67453 9.14288 3511 ft 215 kts 253°
2026-05-05 17:17 48.67032 9.12026 4206 ft 228 kts 258°
2026-05-05 17:17 48.67211 9.09644 5146 ft 238 kts 292°
2026-05-05 17:17 48.68265 9.07656 6135 ft 247 kts 310°
2026-05-05 17:18 48.69748 9.06204 6890 ft 269 kts 334°
2026-05-05 17:18 48.71586 9.05257 7545 ft 284 kts 338°
2026-05-05 17:18 48.73507 9.04412 8421 ft 293 kts 347°
2026-05-05 17:18 48.75572 9.04442 9304 ft 304 kts
2026-05-05 17:19 48.77570 9.05623 10125 ft 315 kts 30°
2026-05-05 17:19 48.79249 9.07923 10428 ft 340 kts 53°
2026-05-05 17:19 48.80660 9.10950 10662 ft 363 kts 56°
2026-05-05 17:19 48.82138 9.14184 11046 ft 379 kts 56°
2026-05-05 17:20 48.83636 9.17453 11696 ft 384 kts 56°
2026-05-05 17:20 48.85193 9.20837 12421 ft 388 kts 55°
2026-05-05 17:20 48.86752 9.24213 13111 ft 393 kts 55°
2026-05-05 17:20 48.88330 9.27623 13795 ft 396 kts 55°
2026-05-05 17:21 48.89904 9.31020 14422 ft 400 kts 55°
2026-05-05 17:21 48.91396 9.34657 15086 ft 402 kts 64°
2026-05-05 17:21 48.92485 9.38522 15747 ft 403 kts 69°
2026-05-05 17:22 48.94547 9.46502 17108 ft 408 kts 70°
2026-05-05 17:22 48.95592 9.50544 17783 ft 411 kts 70°
2026-05-05 17:22 48.96643 9.54602 18428 ft 413 kts 70°
2026-05-05 17:22 48.97698 9.58680 19014 ft 416 kts 70°
2026-05-05 17:23 48.98758 9.62788 19599 ft 418 kts 70°
2026-05-05 17:23 48.99828 9.66933 20162 ft 421 kts 70°
2026-05-05 17:23 49.00900 9.71099 20714 ft 423 kts 70°
2026-05-05 17:23 49.01979 9.75293 21202 ft 427 kts 70°
2026-05-05 17:24 49.03064 9.79522 21711 ft 430 kts 70°
2026-05-05 17:24 49.04151 9.83774 22214 ft 432 kts 71°
2026-05-05 17:24 49.05247 9.88080 22698 ft 435 kts 71°
2026-05-05 17:24 49.06341 9.92386 23189 ft 437 kts 71°
2026-05-05 17:25 49.07443 9.96729 23616 ft 440 kts 71°
2026-05-05 17:25 49.07802 9.98148 23705 ft 441 kts 71°
2026-05-05 17:25 49.09282 10.04004 23830 ft 446 kts 71°
2026-05-05 17:25 49.10402 10.08441 23839 ft 449 kts 71°
2026-05-05 17:26 49.11526 10.12891 23843 ft 450 kts 71°
2026-05-05 17:26 49.12651 10.17349 23846 ft 450 kts 71°
2026-05-05 17:26 49.13950 10.21695 23834 ft 452 kts 63°
2026-05-05 17:26 49.15691 10.25724 23850 ft 456 kts 54°
2026-05-05 17:27 49.17826 10.29331 23852 ft 459 kts 47°
2026-05-05 17:27 49.20075 10.32800 23866 ft 459 kts 47°
2026-05-05 17:27 49.22314 10.36270 23851 ft 459 kts 47°
2026-05-05 17:27 49.24558 10.39753 23848 ft 459 kts 47°
2026-05-05 17:28 49.26808 10.43221 23846 ft 459 kts 47°
2026-05-05 17:28 49.29066 10.46669 23843 ft 459 kts 46°
2026-05-05 17:28 49.31306 10.50078 23848 ft 458 kts 46°
2026-05-05 17:28 49.33594 10.53560 23853 ft 458 kts 47°
2026-05-05 17:29 49.35844 10.57013 23854 ft 457 kts 47°
2026-05-05 17:29 49.38030 10.60475 23854 ft 457 kts 48°
2026-05-05 17:29 49.40211 10.64021 23854 ft 456 kts 49°
2026-05-05 17:29 49.42376 10.67584 23854 ft 456 kts 49°
2026-05-05 17:30 49.44556 10.71120 23854 ft 456 kts 48°
2026-05-05 17:30 49.46762 10.74631 23854 ft 456 kts 47°
2026-05-05 17:30 49.48980 10.78116 23817 ft 456 kts 47°
2026-05-05 17:30 49.51221 10.81617 23868 ft 462 kts 47°
2026-05-05 17:31 49.53493 10.85170 23989 ft 469 kts 47°
2026-05-05 17:31 49.55785 10.88772 24190 ft 473 kts 47°
2026-05-05 17:31 49.58083 10.92410 24539 ft 473 kts 48°
2026-05-05 17:31 49.60371 10.96051 24950 ft 472 kts 48°
2026-05-05 17:32 49.62655 10.99693 25375 ft 471 kts 48°
2026-05-05 17:32 49.64928 11.03323 25820 ft 470 kts 48°
2026-05-05 17:32 49.67203 11.06956 26264 ft 469 kts 48°
2026-05-05 17:32 49.69472 11.10581 26673 ft 469 kts 48°
2026-05-05 17:33 49.71736 11.14200 26791 ft 468 kts 48°
2026-05-05 17:33 49.73996 11.17818 26809 ft 467 kts 48°
2026-05-05 17:33 49.76270 11.21410 26806 ft 468 kts 45°
2026-05-05 17:33 49.78782 11.24607 26804 ft 470 kts 38°
2026-05-05 17:34 49.81427 11.27585 26800 ft 470 kts 38°
2026-05-05 17:34 49.84073 11.30569 26788 ft 470 kts 38°
2026-05-05 17:34 49.86713 11.33553 26774 ft 470 kts 38°
2026-05-05 17:34 49.89343 11.36536 26783 ft 469 kts 38°
2026-05-05 17:35 49.91972 11.39534 26782 ft 468 kts 39°
2026-05-05 17:35 49.94413 11.42845 26781 ft 466 kts 47°
2026-05-05 17:35 49.96693 11.46423 26754 ft 466 kts 47°
2026-05-05 17:35 49.98978 11.50009 26751 ft 467 kts 47°
2026-05-05 17:36 50.01262 11.53592 26755 ft 468 kts 47°
2026-05-05 17:36 50.03556 11.57192 26741 ft 468 kts 47°
2026-05-05 17:36 50.05822 11.60750 26744 ft 469 kts 47°
2026-05-05 17:36 50.08116 11.64366 26746 ft 470 kts 47°
2026-05-05 17:37 50.10380 11.68033 26741 ft 471 kts 48°
2026-05-05 17:37 50.12621 11.71762 26743 ft 471 kts 49°
2026-05-05 17:37 50.14840 11.75507 26748 ft 472 kts 49°
2026-05-05 17:37 50.17069 11.79285 26752 ft 473 kts 49°
2026-05-05 17:38 50.19146 11.83248 26757 ft 471 kts 57°
2026-05-05 17:38 50.20901 11.87562 26761 ft 470 kts 60°
2026-05-05 17:38 50.22612 11.91918 26765 ft 471 kts 60°
2026-05-05 17:38 50.24328 11.96279 26767 ft 471 kts 60°
2026-05-05 17:39 50.26047 12.00645 26769 ft 471 kts 60°
2026-05-05 17:39 50.27798 12.04977 26746 ft 472 kts 59°
2026-05-05 17:39 50.29626 12.09248 26741 ft 474 kts 57°
2026-05-05 17:39 50.31508 12.13484 26739 ft 475 kts 57°
2026-05-05 17:40 50.33415 12.17705 26737 ft 476 kts 56°
2026-05-05 17:40 50.35187 12.22063 26717 ft 474 kts 63°
2026-05-05 17:40 50.36767 12.26610 26721 ft 474 kts 64°
2026-05-05 17:40 50.38321 12.31169 26723 ft 475 kts 64°
2026-05-05 17:41 50.39858 12.35750 26725 ft 475 kts 65°
2026-05-05 17:41 50.41381 12.40334 26732 ft 475 kts 65°
2026-05-05 17:41 50.42906 12.44941 26732 ft 475 kts 65°
2026-05-05 17:41 50.44430 12.49543 26734 ft 475 kts 65°
2026-05-05 17:42 50.45954 12.54134 26738 ft 475 kts 65°
2026-05-05 17:42 50.47482 12.58728 26744 ft 475 kts 65°
2026-05-05 17:42 50.49015 12.63340 26725 ft 475 kts 64°
2026-05-05 17:42 50.50544 12.67940 26730 ft 475 kts 64°
2026-05-05 17:43 50.52069 12.72540 26734 ft 475 kts 64°
2026-05-05 17:43 50.53596 12.77159 26735 ft 475 kts 65°
2026-05-05 17:43 50.55117 12.81768 26738 ft 476 kts 65°
2026-05-05 17:43 50.56642 12.86393 26740 ft 476 kts 65°
2026-05-05 17:44 50.58160 12.91014 26741 ft 476 kts 65°
2026-05-05 17:44 50.59676 12.95641 26752 ft 476 kts 65°
2026-05-05 17:44 50.61176 13.00216 26763 ft 476 kts 64°
2026-05-05 17:44 50.62973 13.04688 26749 ft 478 kts 54°
2026-05-05 17:45 50.65123 13.08604 26746 ft 480 kts 45°
2026-05-05 17:45 50.67606 13.12120 26746 ft 480 kts 41°
2026-05-05 17:45 50.70121 13.15595 26750 ft 480 kts 42°
2026-05-05 17:45 50.72630 13.19094 26749 ft 480 kts 42°
2026-05-05 17:46 50.75128 13.22600 26747 ft 480 kts 42°
2026-05-05 17:46 50.77622 13.26111 26762 ft 480 kts 42°
2026-05-05 17:46 50.80113 13.29620 26768 ft 480 kts 42°
2026-05-05 17:46 50.82607 13.33127 26778 ft 480 kts 41°
2026-05-05 17:47 50.85096 13.36626 26780 ft 479 kts 41°
2026-05-05 17:47 50.87591 13.40133 26787 ft 479 kts 41°
2026-05-05 17:47 50.90123 13.43561 26788 ft 479 kts 37°
2026-05-05 17:47 50.92909 13.46428 26790 ft 478 kts 27°
2026-05-05 17:48 50.95934 13.48602 26793 ft 476 kts 18°
2026-05-05 17:48 50.99111 13.50027 26794 ft 474 kts
2026-05-05 17:48 51.02399 13.50918 26795 ft 473 kts
2026-05-05 17:48 51.05653 13.51780 26807 ft 473 kts
2026-05-05 17:49 51.08855 13.52639 26806 ft 473 kts
2026-05-05 17:49 51.12145 13.53528 26808 ft 473 kts
2026-05-05 17:49 51.15348 13.54396 26808 ft 473 kts
2026-05-05 17:49 51.18591 13.55275 26807 ft 473 kts
2026-05-05 17:50 51.21840 13.56158 26807 ft 473 kts
2026-05-05 17:50 51.25089 13.57044 26805 ft 473 kts
2026-05-05 17:50 51.28326 13.57927 26808 ft 473 kts
2026-05-05 17:50 51.31573 13.58812 26737 ft 468 kts
2026-05-05 17:51 51.34731 13.59675 26553 ft 453 kts
2026-05-05 17:51 51.37796 13.60517 26412 ft 439 kts
2026-05-05 17:51 51.40752 13.61328 26295 ft 423 kts
2026-05-05 17:51 51.43596 13.62105 26149 ft 407 kts
2026-05-05 17:52 51.46352 13.62853 25777 ft 398 kts
2026-05-05 17:52 51.49073 13.63594 25289 ft 394 kts
2026-05-05 17:52 51.51758 13.64329 24763 ft 391 kts
2026-05-05 17:52 51.54430 13.65066 24226 ft 388 kts
2026-05-05 17:53 51.57084 13.65808 23685 ft 385 kts
2026-05-05 17:53 51.59703 13.66648 23113 ft 383 kts
2026-05-05 17:53 51.62295 13.67584 22508 ft 380 kts 11°
2026-05-05 17:53 51.64860 13.68566 21929 ft 377 kts 11°
2026-05-05 17:54 51.67393 13.69548 21367 ft 373 kts 11°
2026-05-05 17:54 51.69904 13.70509 20819 ft 369 kts 11°
2026-05-05 17:54 51.72386 13.71443 20381 ft 362 kts 10°
2026-05-05 17:54 51.74826 13.72350 19912 ft 358 kts 10°
2026-05-05 17:55 51.77241 13.73240 19414 ft 354 kts 10°
2026-05-05 17:55 51.79636 13.74118 19029 ft 352 kts 10°
2026-05-05 17:55 51.82009 13.74986 18571 ft 348 kts 10°
2026-05-05 17:55 51.84372 13.75835 18193 ft 347 kts 10°
2026-05-05 17:56 51.86704 13.76666 17731 ft 345 kts 10°
2026-05-05 17:56 51.89046 13.77498 17251 ft 343 kts 10°
2026-05-05 17:56 51.91367 13.78323 16780 ft 340 kts 10°
2026-05-05 17:56 51.93673 13.79143 16315 ft 338 kts 10°
2026-05-05 17:57 51.95961 13.79963 15877 ft 336 kts 10°
2026-05-05 17:57 51.98239 13.80799 15417 ft 336 kts 10°
2026-05-05 17:57 52.00522 13.81639 14924 ft 337 kts 10°
2026-05-05 17:57 52.02822 13.82481 14436 ft 338 kts 10°
2026-05-05 17:58 52.05141 13.82918 13961 ft 335 kts 353°
2026-05-05 17:58 52.07352 13.81948 13487 ft 326 kts 328°
2026-05-05 17:58 52.09079 13.79701 13006 ft 314 kts 304°
2026-05-05 17:58 52.10039 13.76636 12538 ft 300 kts 281°
2026-05-05 17:59 52.10401 13.73375 12324 ft 284 kts 276°
2026-05-05 17:59 52.10676 13.70283 12201 ft 268 kts 275°
2026-05-05 17:59 52.10931 13.67360 12003 ft 256 kts 275°
2026-05-05 17:59 52.11174 13.64529 11654 ft 251 kts 275°
2026-05-05 18:00 52.11410 13.61722 11245 ft 250 kts 275°
2026-05-05 18:00 52.11639 13.58926 10849 ft 249 kts 275°
2026-05-05 18:00 52.11858 13.56170 10590 ft 248 kts 275°
2026-05-05 18:00 52.12074 13.53393 10252 ft 246 kts 275°
2026-05-05 18:01 52.12284 13.50632 9894 ft 245 kts 275°
2026-05-05 18:01 52.12486 13.47873 9518 ft 245 kts 275°
2026-05-05 18:01 52.12682 13.45125 9111 ft 244 kts 275°
2026-05-05 18:01 52.12875 13.42376 8776 ft 244 kts 275°
2026-05-05 18:02 52.13064 13.39643 8486 ft 243 kts 275°
2026-05-05 18:02 52.13254 13.36917 8221 ft 242 kts 275°
2026-05-05 18:02 52.13438 13.34209 7950 ft 240 kts 275°
2026-05-05 18:02 52.13620 13.31505 7641 ft 240 kts 275°
2026-05-05 18:03 52.13800 13.28809 7319 ft 240 kts 275°
2026-05-05 18:03 52.13973 13.26095 6915 ft 241 kts 275°
2026-05-05 18:03 52.14146 13.23399 6827 ft 240 kts 275°
2026-05-05 18:03 52.14317 13.20685 6829 ft 242 kts 275°
2026-05-05 18:04 52.14485 13.17961 6804 ft 241 kts 275°
2026-05-05 18:04 52.14652 13.15249 6465 ft 240 kts 275°
2026-05-05 18:04 52.14819 13.12538 6058 ft 241 kts 275°
2026-05-05 18:04 52.14981 13.09826 5662 ft 241 kts 275°
2026-05-05 18:05 52.15146 13.07113 5280 ft 240 kts 277°
2026-05-05 18:05 52.15704 13.04627 4873 ft 238 kts 307°
2026-05-05 18:05 52.16951 13.02930 4382 ft 235 kts 332°
2026-05-05 18:05 52.18408 13.01710 3883 ft 234 kts 337°
2026-05-05 18:06 52.19979 13.01284 3426 ft 229 kts
2026-05-05 18:06 52.20498 13.01475 3280 ft 226 kts 21°
2026-05-05 18:06 52.22178 13.03427 3027 ft 222 kts 44°
2026-05-05 18:06 52.23294 13.05178 3024 ft 223 kts 45°
2026-05-05 18:07 52.24397 13.06936 3032 ft 225 kts 45°
2026-05-05 18:07 52.25413 13.08858 3020 ft 224 kts 62°
2026-05-05 18:07 52.26013 13.11197 3032 ft 223 kts 69°
2026-05-05 18:07 52.26562 13.13567 3031 ft 224 kts 69°
2026-05-05 18:08 52.27115 13.15882 3020 ft 211 kts 69°
2026-05-05 18:08 52.27645 13.18081 3024 ft 203 kts 68°
2026-05-05 18:08 52.28152 13.20183 3023 ft 198 kts 68°
2026-05-05 18:08 52.28653 13.22261 3031 ft 196 kts 68°
2026-05-05 18:09 52.29150 13.24324 3039 ft 190 kts 68°
2026-05-05 18:09 52.29631 13.26324 2808 ft 185 kts 68°
2026-05-05 18:09 52.30083 13.28206 2575 ft 170 kts 68°
2026-05-05 18:09 52.30488 13.29890 2367 ft 148 kts 68°
2026-05-05 18:10 52.30838 13.31348 2171 ft 131 kts 68°
2026-05-05 18:10 52.31164 13.32706 2006 ft 127 kts 68°
2026-05-05 18:10 52.31479 13.34023 1845 ft 124 kts 67°
2026-05-05 18:10 52.31793 13.35332 1686 ft 123 kts 67°
2026-05-05 18:11 52.32103 13.36628 1518 ft 122 kts 68°
2026-05-05 18:11 52.32414 13.37925 1349 ft 122 kts 66°
2026-05-05 18:11 52.32722 13.39213 1184 ft 122 kts 67°
2026-05-05 18:11 52.33029 13.40499 1018 ft 121 kts 68°
2026-05-05 18:12 52.33336 13.41782 853 ft 124 kts 69°
2026-05-05 18:12 52.33650 13.43094 605 ft 121 kts 68°
2026-05-05 18:12 52.33960 13.44396 524 ft 124 kts 68°
2026-05-05 18:12 52.34270 13.45689 370 ft 121 kts 69°
2026-05-05 18:13 52.34584 13.46992 238 ft 123 kts 68°
2026-05-05 18:13 52.34910 13.48360 407 ft 138 kts 70°
2026-05-05 18:13 52.35293 13.49869 1014 ft 148 kts 64°
2026-05-05 18:13 52.35735 13.51413 1599 ft 151 kts 64°
2026-05-05 18:14 52.36205 13.53086 1866 ft 173 kts 67°
2026-05-05 18:14 52.36696 13.55006 2115 ft 194 kts 67°
2026-05-05 18:14 52.37223 13.57105 2767 ft 204 kts 67°
2026-05-05 18:14 52.37761 13.59259 2967 ft 205 kts 68°
2026-05-05 18:15 52.38299 13.61414 3026 ft 204 kts 68°
2026-05-05 18:15 52.38835 13.63557 3033 ft 203 kts 67°
2026-05-05 18:15 52.39370 13.65695 3033 ft 203 kts 68°
2026-05-05 18:15 52.39930 13.67928 3037 ft 228 kts 67°
2026-05-05 18:16 52.40546 13.70367 3062 ft 236 kts 65°
2026-05-05 18:16 52.41573 13.72452 3858 ft 240 kts 34°
2026-05-05 18:16 52.43150 13.73384 4786 ft 247 kts
2026-05-05 18:16 52.44827 13.72865 5735 ft 251 kts 333°
2026-05-05 18:17 52.46165 13.71035 6489 ft 253 kts 304°
2026-05-05 18:17 52.46903 13.68454 6737 ft 249 kts 287°
2026-05-05 18:17 52.47416 13.65750 6821 ft 247 kts 285°
2026-05-05 18:17 52.47887 13.63039 6836 ft 249 kts 281°
2026-05-05 18:18 52.47841 13.60226 6833 ft 248 kts 258°
2026-05-05 18:18 52.47446 13.57465 6840 ft 249 kts 256°
2026-05-05 18:18 52.47017 13.54717 6839 ft 249 kts 255°
2026-05-05 18:18 52.46583 13.51958 6840 ft 250 kts 255°
2026-05-05 18:19 52.46146 13.49201 6834 ft 250 kts 255°
2026-05-05 18:19 52.45705 13.46442 6840 ft 249 kts 255°
2026-05-05 18:19 52.45265 13.43691 6831 ft 250 kts 255°
2026-05-05 18:19 52.44822 13.40923 6832 ft 250 kts 255°
2026-05-05 18:20 52.44381 13.38169 6602 ft 249 kts 255°
2026-05-05 18:20 52.43938 13.35420 6327 ft 247 kts 255°
2026-05-05 18:20 52.43504 13.32735 6151 ft 241 kts 255°
2026-05-05 18:20 52.43076 13.30098 5819 ft 239 kts 255°
2026-05-05 18:21 52.42651 13.27479 5419 ft 238 kts 255°
2026-05-05 18:21 52.42228 13.24866 4953 ft 237 kts 255°
2026-05-05 18:21 52.41808 13.22264 4511 ft 237 kts 255°
2026-05-05 18:21 52.41387 13.19658 4120 ft 236 kts 255°
2026-05-05 18:22 52.40964 13.17112 3871 ft 233 kts 252°
2026-05-05 18:22 52.40348 13.14645 3438 ft 235 kts 246°
2026-05-05 18:22 52.39670 13.12220 3069 ft 234 kts 245°
2026-05-05 18:22 52.38986 13.09795 2995 ft 236 kts 245°
2026-05-05 18:23 52.38093 13.07551 3007 ft 236 kts 221°
2026-05-05 18:23 52.36636 13.06363 3010 ft 236 kts 188°
2026-05-05 18:23 52.35028 13.06600 3014 ft 233 kts 160°
2026-05-05 18:23 52.33517 13.07548 3007 ft 230 kts 155°
2026-05-05 18:24 52.32064 13.08537 3007 ft 224 kts 155°
2026-05-05 18:24 52.30634 13.09511 2993 ft 222 kts 155°
2026-05-05 18:24 52.29214 13.10481 3006 ft 221 kts 155°
2026-05-05 18:24 52.27795 13.11455 3004 ft 221 kts 153°
2026-05-05 18:25 52.26678 13.13043 2991 ft 211 kts 115°
2026-05-05 18:25 52.26470 13.14526 3003 ft 199 kts 84°
2026-05-05 18:25 52.27318 13.17111 3008 ft 195 kts 52°
2026-05-05 18:25 52.27920 13.19078 3015 ft 195 kts 69°
2026-05-05 18:26 52.28394 13.21144 3001 ft 194 kts 69°
2026-05-05 18:26 52.28883 13.23203 3003 ft 195 kts 68°
2026-05-05 18:26 52.29376 13.25260 2942 ft 191 kts 68°
2026-05-05 18:26 52.29853 13.27243 2700 ft 184 kts 68°
2026-05-05 18:27 52.30311 13.29152 2456 ft 182 kts 68°
2026-05-05 18:27 52.30774 13.31078 2216 ft 181 kts 68°
2026-05-05 18:27 52.31232 13.32990 1990 ft 175 kts 68°
2026-05-05 18:27 52.31670 13.34818 1740 ft 163 kts 68°
2026-05-05 18:28 52.32375 13.37766 1356 ft 126 kts 66°
2026-05-05 18:28 52.32688 13.39077 1191 ft 123 kts 68°
2026-05-05 18:28 52.32997 13.40369 1030 ft 121 kts 67°
2026-05-05 18:29 52.33304 13.41649 890 ft 124 kts 69°
2026-05-05 18:29 52.33610 13.42947 692 ft 122 kts 66°
2026-05-05 18:29 52.33920 13.44239 534 ft 123 kts 68°
2026-05-05 18:29 52.34222 13.45527 428 ft 122 kts 68°
2026-05-05 18:30 52.34534 13.46824 248 ft 123 kts 67°
2026-05-05 18:30 52.34833 13.48056 155 ft 105 kts 68°
2026-05-05 18:30 52.35039 13.48907 154 ft 56 kts 69°
2026-05-05 18:30 52.35176 13.49479 155 ft 56 kts 68°
2026-05-05 18:31 52.35326 13.50104 155 ft 47 kts 69°
2026-05-05 18:31 52.35437 13.50480 155 ft 24 kts 49°
2026-05-05 18:31 52.35516 13.50611 155 ft 1 kts 40°
2026-05-05 18:31 52.35530 13.50631 155 ft 4 kts 40°
2026-05-05 18:32 52.35563 13.50672 155 ft 8 kts 35°
2026-05-05 18:32 52.35616 13.50732 155 ft 11 kts 36°
2026-05-05 18:32 52.35686 13.50813 155 ft 14 kts 30°
2026-05-05 18:32 52.35789 13.50814 155 ft 17 kts 339°
2026-05-05 18:33 52.35871 13.50769 155 ft 11 kts 357°
2026-05-05 18:33 52.35925 13.50854 155 ft 13 kts 66°
2026-05-05 18:33 52.35962 13.51011 155 ft 16 kts 69°
2026-05-05 18:33 52.35988 13.51119 155 ft 5 kts 68°
2026-05-05 18:34 52.36012 13.51155 155 ft 6 kts
2026-05-05 18:34 52.36044 13.51140 155 ft 5 kts 339°
2026-05-05 18:34 52.36070 13.51124 155 ft 4 kts 339°
2026-05-05 18:34 52.36082 13.51116 155 ft 0 kts 339°